Location: Poughquag
(41.6090°N, 73.6820°W)
Time: 03:54:18
(UTC-04:00)

ISS - Pass Details

Date: 28 June 2022
Orbit: 412 x 420 km, 51.6° (Epoch: 11 August)

Event Time Altitude Azimuth Distance (km) Brightness Sun altitude
Exits shadow 02:46:18 14° 118° (ESE) 1,298 -1.3 -20.4°
Drops below altitude 10° 02:47:41 10° 94° (E) 1,536 -0.6 -20.3°
Sets 02:50:30 0° 70° (ENE) 2,418 0.8 -20.1°
